Location: ?????????
(38.0736°N, 23.2119°E)
Time: 04:55:26
(UTC+00:00)

Cosmos 540 Rocket - Pass Details

Date: 18 April 2024
Orbit: 737 x 751 km, 74.1° (Epoch: 20 May)

Event Time Altitude Azimuth Distance (km) Brightness Sun altitude
Exits shadow 19:38:57 37° 37° (NE) 1,145 4.4 -27.1°
Drops below altitude 10° 19:42:04 10° 24° (NNE) 2,254 6.1 -27.5°
Sets 19:44:26 0° 22° (NNE) 3,183 7.0 -27.9°
